"FRM_AIS_EDR_2052.DAT           ",2005-08-20T07:30:38.33 ,"1/0072603033.13105",    0,    0,  206172,"AIS","B1","B1","B0","B0","PISd",0,0,0,0,"B1", 0,15,   0, 0,    0,"AIS","N/A    ","OK ","OK ",    001173.534,    -063.630,    0091.444,    0014.834,    0047.511
"FRM_AIS_EDR_2052.DAT           ",2005-08-20T07:30:45.87 ,"1/0072603040.48704",    0,    1,  206172,"AIS","B1","B1","B0","B0","PISd",0,0,0,0,"B1", 0,15,   0, 0,    0,"AIS","N/A    ","OK ","OK ",    001163.154,    -063.304,    0091.511,    0014.840,    0047.366
"FRM_AIS_EDR_2052.DAT           ",2005-08-20T07:30:53.41 ,"1/0072603048.18767",    0,    2,  206172,"AIS","B1","B1","B0","B0","PISd",0,0,0,0,"B1", 0,15,   0, 0,    0,"AIS","N/A    ","OK ","OK ",    001152.805,    -062.976,    0091.576,    0014.846,    0047.223
"FRM_AIS_EDR_2052.DAT           ",2005-08-20T07:31:00.96 ,"1/0072603055.54367",    0,    3,  206172,"AIS","B1","B1","B0","B0","PISd",0,0,0,0,"B1", 0,15,   0, 0,    0,"AIS","N/A    ","OK ","OK ",    001142.488,    -062.647,    0091.639,    0014.853,    0047.080
"FRM_AIS_EDR_2052.DAT           ",2005-08-20T07:31:08.50 ,"1/0072603063.24430",    0,    4,  206172,"AIS","B1","B1","B0","B0","PISd",0,0,0,0,"B1", 0,15,   0, 0,    0,"AIS","N/A    ","OK ","OK ",    001132.203,    -062.317,    0091.700,    0014.859,    0046.938
"FRM_AIS_EDR_2052.DAT           ",2005-08-20T07:31:16.04 ,"1/0072603070.60029",    0,    5,  206172,"AIS","B1","B1","B0","B0","PISd",0,0,0,0,"B1", 0,15,   0, 0,    0,"AIS","N/A    ","OK ","OK ",    001121.951,    -061.985,    0091.760,    0014.865,    0046.797
"FRM_AIS_EDR_2052.DAT           ",2005-08-20T07:31:23.59 ,"1/0072603078.30093",    0,    6,  206172,"AIS","B1","B1","B0","B0","PISd",0,0,0,0,"B1", 0,15,   0, 0,    0,"AIS","N/A    ","OK ","OK ",    001111.732,    -061.651,    0091.819,    0014.871,    0046.657
"FRM_AIS_EDR_2052.DAT           ",2005-08-20T07:31:31.13 ,"1/0072603086.00156",    0,    7,  206172,"AIS","B1","B1","B0","B0","PISd",0,0,0,0,"B1", 0,15,   0, 0,    0,"AIS","N/A    ","OK ","OK ",    001101.547,    -061.316,    0091.875,    0014.877,    0046.517
"FRM_AIS_EDR_2052.DAT           ",2005-08-20T07:31:38.67 ,"1/0072603093.35755",    0,    8,  206172,"AIS","B1","B1","B0","B0","PISd",0,0,0,0,"B1", 0,15,   0, 0,    0,"AIS","N/A    ","OK ","OK ",    001091.396,    -060.979,    0091.931,    0014.883,    0046.379
"FRM_AIS_EDR_2052.DAT           ",2005-08-20T07:31:46.22 ,"1/0072603101.05819",    0,    9,  206172,"AIS","B1","B1","B0","B0","PISd",0,0,0,0,"B1", 0,15,   0, 0,    0,"AIS","N/A    ","OK ","OK ",    001081.280,    -060.641,    0091.985,    0014.888,    0046.241
"FRM_AIS_EDR_2052.DAT           ",2005-08-20T07:31:53.76 ,"1/0072603108.41418",    0,   10,  206172,"AIS","B1","B1","B0","B0","PISd",0,0,0,0,"B1", 0,15,   0, 0,    0,"AIS","N/A    ","OK ","OK ",    001071.199,    -060.301,    0092.037,    0014.894,    0046.104
"FRM_AIS_EDR_2052.DAT           ",2005-08-20T07:32:01.30 ,"1/0072603116.11481",    0,   11,  206172,"AIS","B1","B1","B0","B0","PISd",0,0,0,0,"B1", 0,15,   0, 0,    0,"AIS","N/A    ","OK ","OK ",    001061.154,    -059.959,    0092.089,    0014.899,    0045.969
"FRM_AIS_EDR_2052.DAT           ",2005-08-20T07:32:08.85 ,"1/0072603123.47081",    0,   12,  206172,"AIS","B1","B1","B0","B0","PISd",0,0,0,0,"B1", 0,15,   0, 0,    0,"AIS","N/A    ","OK ","OK ",    001051.146,    -059.616,    0092.138,    0014.904,    0045.834
"FRM_AIS_EDR_2052.DAT           ",2005-08-20T07:32:16.39 ,"1/0072603131.17144",    0,   13,  206172,"AIS","B1","B1","B0","B0","PISd",0,0,0,0,"B1", 0,15,   0, 0,    0,"AIS","N/A    ","OK ","OK ",    001041.174,    -059.271,    0092.187,    0014.910,    0045.701
"FRM_AIS_EDR_2052.DAT           ",2005-08-20T07:32:23.93 ,"1/0072603138.52743",    0,   14,  206172,"AIS","B1","B1","B0","B0","PISd",0,0,0,0,"B1", 0,15,   0, 0,    0,"AIS","N/A    ","OK ","OK ",    001031.240,    -058.925,    0092.234,    0014.915,    0045.568
"FRM_AIS_EDR_2052.DAT           ",2005-08-20T07:32:31.48 ,"1/0072603146.22807",    0,   15,  206172,"AIS","B1","B1","B0","B0","PISd",0,0,0,0,"B1", 0,15,   0, 0,    0,"AIS","N/A    ","OK ","OK ",    001021.344,    -058.577,    0092.281,    0014.920,    0045.437
"FRM_AIS_EDR_2052.DAT           ",2005-08-20T07:32:39.02 ,"1/0072603153.58406",    0,   16,  206172,"AIS","B1","B1","B0","B0","PISd",0,0,0,0,"B1", 0,15,   0, 0,    0,"AIS","N/A    ","OK ","OK ",    001011.486,    -058.228,    0092.326,    0014.925,    0045.307
"FRM_AIS_EDR_2052.DAT           ",2005-08-20T07:32:46.56 ,"1/0072603161.28469",    0,   17,  206172,"AIS","B1","B1","B0","B0","PISd",0,0,0,0,"B1", 0,15,   0, 0,    0,"AIS","N/A    ","OK ","OK ",    001001.667,    -057.877,    0092.369,    0014.930,    0045.178
"FRM_AIS_EDR_2052.DAT           ",2005-08-20T07:32:54.11 ,"1/0072603168.64069",    0,   18,  206172,"AIS","B1","B1","B0","B0","PISd",0,0,0,0,"B1", 0,15,   0, 0,    0,"AIS","N/A    ","OK ","OK ",    000991.888,    -057.524,    0092.412,    0014.935,    0045.051
"FRM_AIS_EDR_2052.DAT           ",2005-08-20T07:33:01.65 ,"1/0072603176.34132",    0,   19,  206172,"AIS","B1","B1","B0","B0","PISd",0,0,0,0,"B1", 0,15,   0, 0,    0,"AIS","N/A    ","OK ","OK ",    000982.150,    -057.170,    0092.454,    0014.940,    0044.925
"FRM_AIS_EDR_2052.DAT           ",2005-08-20T07:33:09.19 ,"1/0072603184.04195",    0,   20,  206172,"AIS","B1","B1","B0","B0","PISd",0,0,0,0,"B1", 0,15,   0, 0,    0,"AIS","N/A    ","OK ","OK ",    000972.451,    -056.814,    0092.494,    0014.944,    0044.800
"FRM_AIS_EDR_2052.DAT           ",2005-08-20T07:33:16.74 ,"1/0072603191.39795",    0,   21,  206172,"AIS","B1","B1","B0","B0","PISd",0,0,0,0,"B1", 0,15,   0, 0,    0,"AIS","N/A    ","OK ","OK ",    000962.795,    -056.457,    0092.534,    0014.949,    0044.677
"FRM_AIS_EDR_2052.DAT           ",2005-08-20T07:33:24.28 ,"1/0072603199.09858",    0,   22,  206172,"AIS","B1","B1","B0","B0","PISd",0,0,0,0,"B1", 0,15,   0, 0,    0,"AIS","N/A    ","OK ","OK ",    000953.180,    -056.097,    0092.572,    0014.954,    0044.555
"FRM_AIS_EDR_2052.DAT           ",2005-08-20T07:33:31.82 ,"1/0072603206.45457",    0,   23,  206172,"AIS","B1","B1","B0","B0","PISd",0,0,0,0,"B1", 0,15,   0, 0,    0,"AIS","N/A    ","OK ","OK ",    000943.608,    -055.737,    0092.610,    0014.958,    0044.434
"FRM_AIS_EDR_2052.DAT           ",2005-08-20T07:33:39.37 ,"1/0072603214.15521",    0,   24,  206172,"AIS","B1","B1","B0","B0","PISd",0,0,0,0,"B1", 0,15,   0, 0,    0,"AIS","N/A    ","OK ","OK ",    000934.078,    -055.374,    0092.646,    0014.963,    0044.316
"FRM_AIS_EDR_2052.DAT           ",2005-08-20T07:33:46.91 ,"1/0072603221.51120",    0,   25,  206172,"AIS","B1","B1","B0","B0","PISd",0,0,0,0,"B1", 0,15,   0, 0,    0,"AIS","N/A    ","OK ","OK ",    000924.593,    -055.010,    0092.682,    0014.967,    0044.198
"FRM_AIS_EDR_2052.DAT           ",2005-08-20T07:33:54.45 ,"1/0072603229.21183",    0,   26,  206172,"AIS","B1","B1","B0","B0","PISd",0,0,0,0,"B1", 0,15,   0, 0,    0,"AIS","N/A    ","OK ","OK ",    000915.151,    -054.645,    0092.717,    0014.971,    0044.083
"FRM_AIS_EDR_2052.DAT           ",2005-08-20T07:34:01.99 ,"1/0072603236.56783",    0,   27,  206172,"AIS","B1","B1","B0","B0","PISd",0,0,0,0,"B1", 0,15,   0, 0,    0,"AIS","N/A    ","OK ","OK ",    000905.754,    -054.278,    0092.751,    0014.976,    0043.969
"FRM_AIS_EDR_2052.DAT           ",2005-08-20T07:34:09.54 ,"1/0072603244.26846",    0,   28,  206172,"AIS","B1","B1","B0","B0","PISd",0,0,0,0,"B1", 0,15,   0, 0,    0,"AIS","N/A    ","OK ","OK ",    000896.403,    -053.909,    0092.784,    0014.980,    0043.856
"FRM_AIS_EDR_2052.DAT           ",2005-08-20T07:34:17.08 ,"1/0072603251.62445",    0,   29,  206172,"AIS","B1","B1","B0","B0","PISd",0,0,0,0,"B1", 0,15,   0, 0,    0,"AIS","N/A    ","OK ","OK ",    000887.098,    -053.538,    0092.816,    0014.984,    0043.746
"FRM_AIS_EDR_2052.DAT           ",2005-08-20T07:34:24.62 ,"1/0072603259.32509",    0,   30,  206172,"AIS","B1","B1","B0","B0","PISd",0,0,0,0,"B1", 0,15,   0, 0,    0,"AIS","N/A    ","OK ","OK ",    000877.839,    -053.166,    0092.847,    0014.988,    0043.637
"FRM_AIS_EDR_2052.DAT           ",2005-08-20T07:34:32.17 ,"1/0072603267.02572",    0,   31,  206172,"AIS","B1","B1","B0","B0","PISd",0,0,0,0,"B1", 0,15,   0, 0,    0,"AIS","N/A    ","OK ","OK ",    000868.628,    -052.793,    0092.877,    0014.992,    0043.530
"FRM_AIS_EDR_2052.DAT           ",2005-08-20T07:34:39.71 ,"1/0072603274.38171",    0,   32,  206172,"AIS","B1","B1","B0","B0","PISd",0,0,0,0,"B1", 0,15,   0, 0,    0,"AIS","N/A    ","OK ","OK ",    000859.464,    -052.417,    0092.907,    0014.996,    0043.425
"FRM_AIS_EDR_2052.DAT           ",2005-08-20T07:34:47.25 ,"1/0072603282.08235",    0,   33,  206172,"AIS","B1","B1","B0","B0","PISd",0,0,0,0,"B1", 0,15,   0, 0,    0,"AIS","N/A    ","OK ","OK ",    000850.349,    -052.040,    0092.936,    0015.000,    0043.322
"FRM_AIS_EDR_2052.DAT           ",2005-08-20T07:34:54.80 ,"1/0072603289.43834",    0,   34,  206172,"AIS","B1","B1","B0","B0","PISd",0,0,0,0,"B1", 0,15,   0, 0,    0,"AIS","N/A    ","OK ","OK ",    000841.283,    -051.662,    0092.964,    0015.004,    0043.221
"FRM_AIS_EDR_2052.DAT           ",2005-08-20T07:35:02.34 ,"1/0072603297.13897",    0,   35,  206172,"AIS","B1","B1","B0","B0","PISd",0,0,0,0,"B1", 0,15,   0, 0,    0,"AIS","N/A    ","OK ","OK ",    000832.267,    -051.282,    0092.992,    0015.008,    0043.123
"FRM_AIS_EDR_2052.DAT           ",2005-08-20T07:35:09.88 ,"1/0072603304.49497",    0,   36,  206172,"AIS","B1","B1","B0","B0","PISd",0,0,0,0,"B1", 0,15,   0, 0,    0,"AIS","N/A    ","OK ","OK ",    000823.300,    -050.900,    0093.018,    0015.012,    0043.026
"FRM_AIS_EDR_2052.DAT           ",2005-08-20T07:35:17.43 ,"1/0072603312.19560",    0,   37,  206172,"AIS","B1","B1","B0","B0","PISd",0,0,0,0,"B1", 0,15,   0, 0,    0,"AIS","N/A    ","OK ","OK ",    000814.385,    -050.516,    0093.044,    0015.016,    0042.931
"FRM_AIS_EDR_2052.DAT           ",2005-08-20T07:35:24.97 ,"1/0072603319.55159",    0,   38,  206172,"AIS","B1","B1","B0","B0","PISd",0,0,0,0,"B1", 0,15,   0, 0,    0,"AIS","N/A    ","OK ","OK ",    000805.522,    -050.131,    0093.070,    0015.019,    0042.839
"FRM_AIS_EDR_2052.DAT           ",2005-08-20T07:35:32.51 ,"1/0072603327.25223",    0,   39,  206172,"AIS","B1","B1","B0","B0","PISd",0,0,0,0,"B1", 0,15,   0, 0,    0,"AIS","N/A    ","OK ","OK ",    000796.710,    -049.744,    0093.095,    0015.023,    0042.749
"FRM_AIS_EDR_2052.DAT           ",2005-08-20T07:35:40.06 ,"1/0072603334.60822",    0,   40,  206172,"AIS","B1","B1","B0","B0","PISd",0,0,0,0,"B1", 0,15,   0, 0,    0,"AIS","N/A    ","OK ","OK ",    000787.952,    -049.356,    0093.119,    0015.027,    0042.661
"FRM_AIS_EDR_2052.DAT           ",2005-08-20T07:35:47.60 ,"1/0072603342.30885",    0,   41,  206172,"AIS","B1","B1","B0","B0","PISd",0,0,0,0,"B1", 0,15,   0, 0,    0,"AIS","N/A    ","OK ","OK ",    000779.247,    -048.966,    0093.142,    0015.030,    0042.575
"FRM_AIS_EDR_2052.DAT           ",2005-08-20T07:35:55.14 ,"1/0072603350.00949",    0,   42,  206172,"AIS","B1","B1","B0","B0","PISd",0,0,0,0,"B1", 0,15,   0, 0,    0,"AIS","N/A    ","OK ","OK ",    000770.596,    -048.574,    0093.165,    0015.034,    0042.492
"FRM_AIS_EDR_2052.DAT           ",2005-08-20T07:36:02.69 ,"1/0072603357.36548",    0,   43,  206172,"AIS","B1","B1","B0","B0","PISd",0,0,0,0,"B1", 0,15,   0, 0,    0,"AIS","N/A    ","OK ","OK ",    000762.000,    -048.181,    0093.187,    0015.037,    0042.412
"FRM_AIS_EDR_2052.DAT           ",2005-08-20T07:36:10.23 ,"1/0072603365.06611",    0,   44,  206172,"AIS","B1","B1","B0","B0","PISd",0,0,0,0,"B1", 0,15,   0, 0,    0,"AIS","N/A    ","OK ","OK ",    000753.459,    -047.786,    0093.209,    0015.041,    0042.334
"FRM_AIS_EDR_2052.DAT           ",2005-08-20T07:36:17.77 ,"1/0072603372.42211",    0,   45,  206172,"AIS","B1","B1","B0","B0","PISd",0,0,0,0,"B1", 0,15,   0, 0,    0,"AIS","N/A    ","OK ","OK ",    000744.974,    -047.390,    0093.230,    0015.044,    0042.258
"FRM_AIS_EDR_2052.DAT           ",2005-08-20T07:36:25.32 ,"1/0072603380.12274",    0,   46,  206172,"AIS","B1","B1","B0","B0","PISd",0,0,0,0,"B1", 0,15,   0, 0,    0,"AIS","N/A    ","OK ","OK ",    000736.547,    -046.991,    0093.250,    0015.048,    0042.185
"FRM_AIS_EDR_2052.DAT           ",2005-08-20T07:36:32.86 ,"1/0072603387.47873",    0,   47,  206172,"AIS","B1","B1","B0","B0","PISd",0,0,0,0,"B1", 0,15,   0, 0,    0,"AIS","N/A    ","OK ","OK ",    000728.176,    -046.592,    0093.270,    0015.051,    0042.115
"FRM_AIS_EDR_2052.DAT           ",2005-08-20T07:36:40.40 ,"1/0072603395.17937",    0,   48,  206172,"AIS","B1","B1","B0","B0","PISd",0,0,0,0,"B1", 0,15,   0, 0,    0,"AIS","N/A    ","OK ","OK ",    000719.864,    -046.190,    0093.289,    0015.054,    0042.048
"FRM_AIS_EDR_2052.DAT           ",2005-08-20T07:36:47.95 ,"1/0072603402.53536",    0,   49,  206172,"AIS","B1","B1","B0","B0","PISd",0,0,0,0,"B1", 0,15,   0, 0,    0,"AIS","N/A    ","OK ","OK ",    000711.610,    -045.787,    0093.308,    0015.058,    0041.983
"FRM_AIS_EDR_2052.DAT           ",2005-08-20T07:36:55.49 ,"1/0072603410.23599",    0,   50,  206172,"AIS","B1","B1","B0","B0","PISd",0,0,0,0,"B1", 0,15,   0, 0,    0,"AIS","N/A    ","OK ","OK ",    000703.416,    -045.382,    0093.326,    0015.061,    0041.921
"FRM_AIS_EDR_2052.DAT           ",2005-08-20T07:37:03.03 ,"1/0072603417.59199",    0,   51,  206172,"AIS","B1","B1","B0","B0","PISd",0,0,0,0,"B1", 0,15,   0, 0,    0,"AIS","N/A    ","OK ","OK ",    000695.282,    -044.976,    0093.344,    0015.064,    0041.862
"FRM_AIS_EDR_2052.DAT           ",2005-08-20T07:37:10.57 ,"1/0072603425.29262",    0,   52,  206172,"AIS","B1","B1","B0","B0","PISd",0,0,0,0,"B1", 0,15,   0, 0,    0,"AIS","N/A    ","OK ","OK ",    000687.208,    -044.568,    0093.361,    0015.068,    0041.806
"FRM_AIS_EDR_2052.DAT           ",2005-08-20T07:37:18.12 ,"1/0072603432.64861",    0,   53,  206172,"AIS","B1","B1","B0","B0","PISd",0,0,0,0,"B1", 0,15,   0, 0,    0,"AIS","N/A    ","OK ","OK ",    000679.196,    -044.159,    0093.378,    0015.071,    0041.753
"FRM_AIS_EDR_2052.DAT           ",2005-08-20T07:37:25.66 ,"1/0072603440.34925",    0,   54,  206172,"AIS","B1","B1","B0","B0","PISd",0,0,0,0,"B1", 0,15,   0, 0,    0,"AIS","N/A    ","OK ","OK ",    000671.247,    -043.748,    0093.394,    0015.074,    0041.704
"FRM_AIS_EDR_2052.DAT           ",2005-08-20T07:37:33.20 ,"1/0072603448.04988",    0,   55,  206172,"AIS","B1","B1","B0","B0","PISd",0,0,0,0,"B1", 0,15,   0, 0,    0,"AIS","N/A    ","OK ","OK ",    000663.359,    -043.335,    0093.410,    0015.077,    0041.657
"FRM_AIS_EDR_2052.DAT           ",2005-08-20T07:37:40.75 ,"1/0072603455.40587",    0,   56,  206172,"AIS","B1","B1","B0","B0","PISd",0,0,0,0,"B1", 0,15,   0, 0,    0,"AIS","N/A    ","OK ","OK ",    000655.536,    -042.921,    0093.426,    0015.080,    0041.613
"FRM_AIS_EDR_2052.DAT           ",2005-08-20T07:37:48.29 ,"1/0072603463.10651",    0,   57,  206172,"AIS","B1","B1","B0","B0","PISd",0,0,0,0,"B1", 0,15,   0, 0,    0,"AIS","N/A    ","OK ","OK ",    000647.776,    -042.505,    0093.441,    0015.083,    0041.573
"FRM_AIS_EDR_2052.DAT           ",2005-08-20T07:37:55.83 ,"1/0072603470.46250",    0,   58,  206172,"AIS","B1","B1","B0","B0","PISd",0,0,0,0,"B1", 0,15,   0, 0,    0,"AIS","N/A    ","OK ","OK ",    000640.081,    -042.087,    0093.455,    0015.086,    0041.536
"FRM_AIS_EDR_2052.DAT           ",2005-08-20T07:38:03.38 ,"1/0072603478.16313",    0,   59,  206172,"AIS","B1","B1","B0","B0","PISd",0,0,0,0,"B1", 0,15,   0, 0,    0,"AIS","N/A    ","OK ","OK ",    000632.452,    -041.668,    0093.469,    0015.089,    0041.502
"FRM_AIS_EDR_2052.DAT           ",2005-08-20T07:38:10.92 ,"1/0072603485.51913",    0,   60,  206172,"AIS","B1","B1","B0","B0","PISd",0,0,0,0,"B1", 0,15,   0, 0,    0,"AIS","N/A    ","OK ","OK ",    000624.889,    -041.247,    0093.483,    0015.092,    0041.471
"FRM_AIS_EDR_2052.DAT           ",2005-08-20T07:38:18.46 ,"1/0072603493.21976",    0,   61,  206172,"AIS","B1","B1","B0","B0","PISd",0,0,0,0,"B1", 0,15,   0, 0,    0,"AIS","N/A    ","OK ","OK ",    000617.393,    -040.825,    0093.496,    0015.095,    0041.444
"FRM_AIS_EDR_2052.DAT           ",2005-08-20T07:38:26.01 ,"1/0072603500.57575",    0,   62,  206172,"AIS","B1","B1","B0","B0","PISd",0,0,0,0,"B1", 0,15,   0, 0,    0,"AIS","N/A    ","OK ","OK ",    000609.964,    -040.401,    0093.509,    0015.098,    0041.421
"FRM_AIS_EDR_2052.DAT           ",2005-08-20T07:38:33.55 ,"1/0072603508.27639",    0,   63,  206172,"AIS","B1","B1","B0","B0","PISd",0,0,0,0,"B1", 0,15,   0, 0,    0,"AIS","N/A    ","OK ","OK ",    000602.604,    -039.976,    0093.522,    0015.101,    0041.401
"FRM_AIS_EDR_2052.DAT           ",2005-08-20T07:38:41.09 ,"1/0072603515.63238",    0,   64,  206172,"AIS","B1","B1","B0","B0","PISd",0,0,0,0,"B1", 0,15,   0, 0,    0,"AIS","N/A    ","OK ","OK ",    000595.312,    -039.549,    0093.534,    0015.103,    0041.384
"FRM_AIS_EDR_2052.DAT           ",2005-08-20T07:38:48.64 ,"1/0072603523.33301",    0,   65,  206172,"AIS","B1","B1","B0","B0","PISd",0,0,0,0,"B1", 0,15,   0, 0,    0,"AIS","N/A    ","OK ","OK ",    000588.090,    -039.121,    0093.545,    0015.106,    0041.371
"FRM_AIS_EDR_2052.DAT           ",2005-08-20T07:38:56.18 ,"1/0072603531.03365",    0,   66,  206172,"AIS","B1","B1","B0","B0","PISd",0,0,0,0,"B1", 0,15,   0, 0,    0,"AIS","N/A    ","OK ","OK ",    000580.939,    -038.691,    0093.557,    0015.109,    0041.362
"FRM_AIS_EDR_2052.DAT           ",2005-08-20T07:39:03.72 ,"1/0072603538.38964",    0,   67,  206172,"AIS","B1","B1","B0","B0","PISd",0,0,0,0,"B1", 0,15,   0, 0,    0,"AIS","N/A    ","OK ","OK ",    000573.858,    -038.259,    0093.568,    0015.112,    0041.356
"FRM_AIS_EDR_2052.DAT           ",2005-08-20T07:39:11.27 ,"1/0072603546.09027",    0,   68,  206172,"AIS","B1","B1","B0","B0","PISd",0,0,0,0,"B1", 0,15,   0, 0,    0,"AIS","N/A    ","OK ","OK ",    000566.849,    -037.826,    0093.579,    0015.114,    0041.354
"FRM_AIS_EDR_2052.DAT           ",2005-08-20T07:39:18.81 ,"1/0072603553.44627",    0,   69,  206172,"AIS","B1","B1","B0","B0","PISd",0,0,0,0,"B1", 0,15,   0, 0,    0,"AIS","N/A    ","OK ","OK ",    000559.912,    -037.392,    0093.589,    0015.117,    0041.356
"FRM_AIS_EDR_2052.DAT           ",2005-08-20T07:39:26.35 ,"1/0072603561.14690",    0,   70,  206172,"AIS","B1","B1","B0","B0","PISd",0,0,0,0,"B1", 0,15,   0, 0,    0,"AIS","N/A    ","OK ","OK ",    000553.048,    -036.956,    0093.599,    0015.120,    0041.362
"FRM_AIS_EDR_2052.DAT           ",2005-08-20T07:39:33.90 ,"1/0072603568.50289",    0,   71,  206172,"AIS","B1","B1","B0","B0","PISd",0,0,0,0,"B1", 0,15,   0, 0,    0,"AIS","N/A    ","OK ","OK ",    000546.258,    -036.518,    0093.609,    0015.123,    0041.372
"FRM_AIS_EDR_2052.DAT           ",2005-08-20T07:39:41.44 ,"1/0072603576.20353",    0,   72,  206172,"AIS","B1","B1","B0","B0","PISd",0,0,0,0,"B1", 0,15,   0, 0,    0,"AIS","N/A    ","OK ","OK ",    000539.543,    -036.079,    0093.618,    0015.125,    0041.385
"FRM_AIS_EDR_2052.DAT           ",2005-08-20T07:39:48.98 ,"1/0072603583.55952",    0,   73,  206172,"AIS","B1","B1","B0","B0","PISd",0,0,0,0,"B1", 0,15,   0, 0,    0,"AIS","N/A    ","OK ","OK ",    000532.902,    -035.638,    0093.627,    0015.128,    0041.402
"FRM_AIS_EDR_2052.DAT           ",2005-08-20T07:39:56.53 ,"1/0072603591.26015",    0,   74,  206172,"AIS","B1","B1","B0","B0","PISd",0,0,0,0,"B1", 0,15,   0, 0,    0,"AIS","N/A    ","OK ","OK ",    000526.337,    -035.196,    0093.636,    0015.131,    0041.424
"FRM_AIS_EDR_2052.DAT           ",2005-08-20T07:40:04.07 ,"1/0072603598.61615",    0,   75,  206172,"AIS","B1","B1","B0","B0","PISd",0,0,0,0,"B1", 0,15,   0, 0,    0,"AIS","N/A    ","OK ","OK ",    000519.849,    -034.753,    0093.644,    0015.133,    0041.449
"FRM_AIS_EDR_2052.DAT           ",2005-08-20T07:40:11.61 ,"1/0072603606.31678",    0,   76,  206172,"AIS","B1","B1","B0","B0","PISd",0,0,0,0,"B1", 0,15,   0, 0,    0,"AIS","N/A    ","OK ","OK ",    000513.437,    -034.308,    0093.652,    0015.136,    0041.478
"FRM_AIS_EDR_2052.DAT           ",2005-08-20T07:40:19.15 ,"1/0072603614.01741",    0,   77,  206172,"AIS","B1","B1","B0","B0","PISd",0,0,0,0,"B1", 0,15,   0, 0,    0,"AIS","N/A    ","OK ","OK ",    000507.104,    -033.862,    0093.660,    0015.138,    0041.512
"FRM_AIS_EDR_2052.DAT           ",2005-08-20T07:40:26.70 ,"1/0072603621.37341",    0,   78,  206172,"AIS","B1","B1","B0","B0","PISd",0,0,0,0,"B1", 0,15,   0, 0,    0,"AIS","N/A    ","OK ","OK ",    000500.848,    -033.414,    0093.668,    0015.141,    0041.549
"FRM_AIS_EDR_2052.DAT           ",2005-08-20T07:40:34.24 ,"1/0072603629.07404",    0,   79,  206172,"AIS","B1","B1","B0","B0","PISd",0,0,0,0,"B1", 0,15,   0, 0,    0,"AIS","N/A    ","OK ","OK ",    000494.672,    -032.965,    0093.675,    0015.143,    0041.591
"FRM_AIS_EDR_2052.DAT           ",2005-08-20T07:40:41.78 ,"1/0072603636.43003",    0,   80,  206172,"AIS","B1","B1","B0","B0","PISd",0,0,0,0,"B1", 0,15,   0, 0,    0,"AIS","N/A    ","OK ","OK ",    000488.576,    -032.514,    0093.682,    0015.146,    0041.637
"FRM_AIS_EDR_2052.DAT           ",2005-08-20T07:40:49.33 ,"1/0072603644.13067",    0,   81,  206172,"AIS","B1","B1","B0","B0","PISd",0,0,0,0,"B1", 0,15,   0, 0,    0,"AIS","N/A    ","OK ","OK ",    000482.560,    -032.062,    0093.689,    0015.148,    0041.687
"FRM_AIS_EDR_2052.DAT           ",2005-08-20T07:40:56.87 ,"1/0072603651.48666",    0,   82,  206172,"AIS","B1","B1","B0","B0","PISd",0,0,0,0,"B1", 0,15,   0, 0,    0,"AIS","N/A    ","OK ","OK ",    000476.625,    -031.609,    0093.695,    0015.151,    0041.741
"FRM_AIS_EDR_2052.DAT           ",2005-08-20T07:41:04.41 ,"1/0072603659.18729",    0,   83,  206172,"AIS","B1","B1","B0","B0","PISd",0,0,0,0,"B1", 0,15,   0, 0,    0,"AIS","N/A    ","OK ","OK ",    000470.772,    -031.154,    0093.701,    0015.153,    0041.799
"FRM_AIS_EDR_2052.DAT           ",2005-08-20T07:41:11.96 ,"1/0072603666.54329",    0,   84,  206172,"AIS","B1","B1","B0","B0","PISd",0,0,0,0,"B1", 0,15,   0, 0,    0,"AIS","N/A    ","OK ","OK ",    000465.001,    -030.698,    0093.707,    0015.156,    0041.862
"FRM_AIS_EDR_2052.DAT           ",2005-08-20T07:41:19.50 ,"1/0072603674.24392",    0,   85,  206172,"AIS","B1","B1","B0","B0","PISd",0,0,0,0,"B1", 0,15,   0, 0,    0,"AIS","N/A    ","OK ","OK ",    000459.313,    -030.240,    0093.713,    0015.158,    0041.929
"FRM_AIS_EDR_2052.DAT           ",2005-08-20T07:41:27.04 ,"1/0072603681.59991",    0,   86,  206172,"AIS","B1","B1","B0","B0","PISd",0,0,0,0,"B1", 0,15,   0, 0,    0,"AIS","N/A    ","OK ","OK ",    000453.709,    -029.782,    0093.719,    0015.161,    0042.000
"FRM_AIS_EDR_2052.DAT           ",2005-08-20T07:41:34.59 ,"1/0072603689.30055",    0,   87,  206172,"AIS","B1","B1","B0","B0","PISd",0,0,0,0,"B1", 0,15,   0, 0,    0,"AIS","N/A    ","OK ","OK ",    000448.189,    -029.321,    0093.724,    0015.163,    0042.075
"FRM_AIS_EDR_2052.DAT           ",2005-08-20T07:41:42.13 ,"1/0072603697.00118",    0,   88,  206172,"AIS","B1","B1","B0","B0","PISd",0,0,0,0,"B1", 0,15,   0, 0,    0,"AIS","N/A    ","OK ","OK ",    000442.754,    -028.860,    0093.729,    0015.165,    0042.155
"FRM_AIS_EDR_2052.DAT           ",2005-08-20T07:41:49.67 ,"1/0072603704.35717",    0,   89,  206172,"AIS","B1","B1","B0","B0","PISd",0,0,0,0,"B1", 0,15,   0, 0,    0,"AIS","N/A    ","OK ","OK ",    000437.404,    -028.397,    0093.734,    0015.168,    0042.239
"FRM_AIS_EDR_2052.DAT           ",2005-08-20T07:41:57.22 ,"1/0072603712.05781",    0,   90,  206172,"AIS","B1","B1","B0","B0","PISd",0,0,0,0,"B1", 0,15,   0, 0,    0,"AIS","N/A    ","OK ","OK ",    000432.141,    -027.934,    0093.739,    0015.170,    0042.327